Total_Precipitation_Accumulation
0.13 0.12 0.12 0.12 0.12 0.11 0.11 0.12 0.13 0.09 0.04 0.03 0.04 0.06 0.08 0.11 0.14 0.13 0.11 0.10 0.11 0.13 0.18 0.24 0.28 0.31 0.37 0.47 0.61 0.75 0.69 0.43 0.21 0.11 0.10 0.10 0.08 0.04
0.16 0.16 0.17 0.17 0.18 0.17 0.16 0.14 0.13 0.11 0.07 0.03 0.05 0.07 0.09 0.11 0.15 0.15 0.14 0.13 0.11 0.11 0.12 0.17 0.24 0.31 0.38 0.44 0.48 0.53 0.62 0.61 0.45 0.29 0.23 0.21 0.15 0.09
0.17 0.21 0.22 0.22 0.22 0.21 0.20 0.18 0.15 0.14 0.11 0.04 0.03 0.07 0.12 0.15 0.16 0.15 0.15 0.12 0.09 0.09 0.09 0.12 0.19 0.27 0.36 0.45 0.48 0.50 0.55 0.58 0.54 0.45 0.40 0.31 0.19 0.09
0.32 0.32 0.33 0.35 0.36 0.32 0.29 0.24 0.20 0.16 0.14 0.09 0.04 0.05 0.12 0.18 0.23 0.21 0.17 0.13 0.09 0.08 0.08 0.09 0.13 0.20 0.30 0.38 0.45 0.48 0.53 0.57 0.56 0.49 0.42 0.36 0.25 0.13
0.62 0.60 0.57 0.55 0.53 0.50 0.46 0.38 0.29 0.21 0.17 0.14 0.09 0.06 0.10 0.18 0.27 0.28 0.22 0.16 0.11 0.10 0.09 0.08 0.08 0.13 0.20 0.28 0.36 0.41 0.43 0.45 0.48 0.54 0.55 0.45 0.31 0.21
0.74 0.77 0.81 0.81 0.76 0.69 0.64 0.52 0.39 0.29 0.23 0.20 0.16 0.12 0.11 0.17 0.31 0.34 0.28 0.19 0.13 0.09 0.09 0.07 0.06 0.08 0.10 0.15 0.20 0.28 0.40 0.52 0.57 0.61 0.61 0.50 0.34 0.28
0.50 0.56 0.67 0.80 0.85 0.84 0.79 0.66 0.51 0.41 0.32 0.26 0.22 0.18 0.16 0.20 0.31 0.37 0.36 0.29 0.24 0.18 0.11 0.05 0.04 0.04 0.06 0.11 0.18 0.25 0.34 0.41 0.48 0.53 0.55 0.52 0.40 0.31
0.31 0.34 0.39 0.52 0.58 0.66 0.73 0.71 0.69 0.61 0.51 0.42 0.34 0.27 0.23 0.22 0.29 0.41 0.40 0.34 0.30 0.26 0.21 0.16 0.09 0.07 0.06 0.08 0.13 0.19 0.26 0.31 0.35 0.38 0.40 0.41 0.37 0.30
0.16 0.17 0.19 0.27 0.31 0.36 0.44 0.50 0.60 0.69 0.71 0.65 0.59 0.50 0.36 0.29 0.30 0.37 0.41 0.38 0.31 0.28 0.28 0.31 0.27 0.19 0.13 0.13 0.17 0.18 0.19 0.21 0.23 0.25 0.25 0.27 0.26 0.24
0.12 0.11 0.09 0.14 0.20 0.20 0.25 0.32 0.42 0.57 0.73 0.78 0.80 0.72 0.53 0.38 0.35 0.40 0.48 0.45 0.40 0.40 0.37 0.38 0.38 0.32 0.28 0.26 0.25 0.20 0.16 0.15 0.15 0.16 0.17 0.17 0.16 0.15
0.10 0.12 0.08 0.06 0.12 0.08 0.10 0.18 0.24 0.39 0.51 0.62 0.66 0.62 0.55 0.49 0.46 0.46 0.52 0.56 0.59 0.59 0.53 0.50 0.50 0.41 0.39 0.42 0.41 0.30 0.19 0.14 0.12 0.12 0.11 0.11 0.11 0.11
0.06 0.08 0.13 0.10 0.08 0.05 0.05 0.09 0.13 0.21 0.25 0.31 0.35 0.40 0.42 0.42 0.47 0.54 0.61 0.62 0.65 0.71 0.64 0.53 0.58 0.49 0.51 0.51 0.41 0.29 0.21 0.18 0.14 0.11 0.09 0.08 0.07 0.06
0.05 0.07 0.10 0.09 0.05 0.03 0.02 0.04 0.08 0.07 0.09 0.15 0.21 0.28 0.36 0.41 0.46 0.54 0.62 0.64 0.65 0.67 0.62 0.49 0.52 0.48 0.44 0.48 0.40 0.29 0.19 0.14 0.12 0.11 0.09 0.08 0.06 0.05
0.05 0.04 0.05 0.04 0.02 0.01 0.01 0.01 0.01 0.01 0.02 0.06 0.10 0.16 0.26 0.37 0.46 0.53 0.59 0.63 0.67 0.67 0.55 0.42 0.39 0.36 0.30 0.28 0.30 0.27 0.19 0.13 0.09 0.07 0.06 0.06 0.05 0.04
0.16 0.11 0.02 0.00 0.00 0.00 0.00 0.00 0.00 0.00 0.01 0.02 0.06 0.11 0.18 0.28 0.34 0.40 0.46 0.50 0.53 0.58 0.53 0.43 0.37 0.32 0.26 0.20 0.16 0.16 0.16 0.14 0.11 0.08 0.06 0.05 0.03 0.02
0.13 0.09 0.02 0.00 0.00 0.00 0.00 0.00 0.00 0.00 0.00 0.01 0.03 0.06 0.10 0.16 0.22 0.29 0.36 0.40 0.41 0.50 0.55 0.49 0.42 0.35 0.30 0.23 0.16 0.14 0.12 0.11 0.08 0.06 0.06 0.04 0.03 0.02
0.06 0.02 0.00 0.00 0.00 0.00 0.00 0.00 0.00 0.00 0.00 0.00 0.01 0.03 0.06 0.10 0.16 0.22 0.29 0.33 0.35 0.41 0.51 0.55 0.46 0.37 0.32 0.27 0.22 0.17 0.11 0.08 0.06 0.04 0.03 0.03 0.02 0.01
0.04 0.01 0.00 0.00 0.00 0.00 0.00 0.00 0.00 0.00 0.00 0.00 0.00 0.01 0.03 0.07 0.11 0.16 0.21 0.26 0.29 0.31 0.36 0.45 0.43 0.35 0.33 0.34 0.26 0.16 0.08 0.06 0.04 0.03 0.02 0.02 0.01 0.01
0.01 0.01 0.00 0.00 0.00 0.00 0.00 0.00 0.00 0.00 0.00 0.00 0.00 0.01 0.02 0.04 0.06 0.10 0.15 0.19 0.23 0.25 0.27 0.30 0.32 0.29 0.24 0.26 0.28 0.16 0.08 0.04 0.03 0.02 0.02 0.01 0.01 0.00
0.01 0.00 0.00 0.00 0.00 0.00 0.00 0.00 0.00 0.00 0.00 0.00 0.00 0.00 0.01 0.02 0.03 0.06 0.09 0.13 0.16 0.18 0.20 0.22 0.24 0.24 0.17 0.11 0.10 0.10 0.07 0.04 0.02 0.01 0.01 0.01 0.00 0.00
0.00 0.00 0.00 0.00 0.00 0.00 0.00 0.00 0.00 0.00 0.00 0.00 0.00 0.00 0.00 0.01 0.01 0.03 0.04 0.07 0.09 0.11 0.13 0.15 0.16 0.16 0.13 0.07 0.04 0.03 0.03 0.02 0.01 0.01 0.01 0.01 0.01 0.00
0.00 0.00 0.00 0.00 0.00 0.00 0.00 0.00 0.00 0.00 0.00 0.00 0.00 0.00 0.00 0.00 0.00 0.01 0.01 0.03 0.04 0.05 0.06 0.07 0.07 0.08 0.08 0.07 0.05 0.03 0.01 0.00 0.00 0.00 0.00 0.01 0.01 0.02
0.00 0.00 0.00 0.00 0.00 0.00 0.00 0.00 0.00 0.00 0.00 0.00 0.00 0.00 0.00 0.00 0.00 0.00 0.00 0.01 0.01 0.02 0.02 0.02 0.02 0.02 0.02 0.03 0.03 0.02 0.01 0.00 0.00 0.00 0.00 0.00 0.00 0.00